Temperature
20 20 19 21 25 29 30 30 30 30 30 29 28 29 29 28 28 26 21 21 20 20 20 20 20 20 20 20 20 20 20 20 20 20 20 19 19 19 19 19 19 19 19 19 19 19 19 19 18
20 20 21 24 29 30 30 30 30 30 29 29 28 28 28 26 23 21 20 20 20 20 20 20 20 20 20 20 20 20 20 20 20 20 19 19 19 19 19 19 19 19 19 19 19 19 19 19 19
20 20 24 28 30 30 30 30 30 29 29 29 28 27 27 25 22 21 20 20 20 19 19 20 20 20 20 20 20 20 20 20 20 20 19 19 19 19 19 19 19 19 19 19 19 19 19 19 19
21 23 25 29 30 30 30 30 30 30 29 28 28 27 24 21 21 21 20 20 19 19 19 19 20 20 20 20 20 20 20 19 19 19 19 19 19 19 19 19 19 18 18 18 18 19 19 19 19
22 26 29 30 30 30 30 29 29 30 29 28 28 27 24 19 20 20 20 20 20 19 19 19 20 19 19 19 19 19 19 19 19 19 19 19 19 19 19 18 18 18 18 18 18 18 18 19 19
25 28 29 30 30 30 30 29 29 29 28 27 28 27 22 19 19 20 20 20 20 20 19 19 19 19 19 19 19 19 19 19 19 19 19 19 19 19 18 18 18 18 18 18 18 18 18 18 18
26 28 29 30 30 30 29 29 29 28 28 27 27 27 23 19 19 19 19 19 20 19 19 18 19 19 19 19 19 19 19 19 19 19 19 19 19 19 18 18 18 18 18 18 18 18 18 18 18
25 28 29 30 29 29 29 28 28 28 27 25 26 27 24 20 19 19 19 19 19 19 19 18 18 18 18 19 19 19 19 19 19 19 19 19 18 18 18 18 18 18 18 18 18 18 18 18 18
24 28 29 29 29 30 29 28 27 26 26 25 24 25 23 20 19 19 18 18 18 19 19 19 18 18 18 18 18 19 19 19 19 18 18 18 18 18 18 18 18 18 18 18 18 18 18 18 18
26 28 29 29 29 29 28 28 27 27 26 25 23 21 20 20 19 19 19 19 18 18 18 18 18 18 18 18 18 18 18 18 18 18 18 18 18 17 17 17 18 18 18 18 18 18 17 17 17
27 28 28 28 28 28 28 28 27 28 28 25 23 21 20 20 20 20 20 19 19 18 18 18 18 18 18 18 18 18 18 18 18 18 18 18 18 17 17 17 17 17 17 17 17 17 17 17 17
27 27 27 27 27 27 28 28 27 27 25 23 22 21 21 21 21 20 20 19 19 19 19 18 18 18 18 18 18 18 18 18 18 18 18 17 17 17 17 17 17 17 17 17 17 17 17 17 17
27 28 27 26 26 26 27 27 26 24 22 21 21 21 21 21 20 20 19 19 19 18 18 18 19 19 19 19 18 18 18 17 17 17 17 17 17 17 17 17 17 17 17 16 17 17 16 17 17
28 27 27 26 26 26 26 26 25 23 21 21 21 20 20 20 20 19 19 19 19 18 18 19 19 19 19 18 18 18 17 17 17 17 17 17 16 16 16 16 16 16 16 16 16 16 16 16 16
26 27 28 27 26 26 26 26 26 21 21 21 20 20 19 19 19 19 19 19 19 18 19 19 19 18 18 18 18 17 17 17 17 16 16 16 16 16 16 15 15 15 15 15 15 15 15 16 16
28 28 28 28 27 26 27 27 24 21 21 21 20 19 19 18 18 18 18 18 18 18 18 18 18 18 18 18 17 17 17 17 16 16 16 15 15 15 15 15 15 15 15 15 15 15 15 15 15
28 28 28 27 27 27 27 27 24 21 22 21 20 19 19 18 18 18 18 18 18 18 18 18 18 18 17 17 17 17 17 16 16 15 15 15 15 14 14 14 14 14 14 14 14 14 14 14 14
28 28 28 27 27 26 26 26 24 22 22 22 20 20 19 18 18 18 17 18 18 18 18 18 18 18 17 17 17 16 16 16 15 15 15 14 14 14 14 14 13 13 13 13 13 13 13 13 14
28 28 27 27 26 26 26 25 24 22 22 22 21 20 19 19 18 18 17 17 17 18 18 18 17 18 17 17 16 16 16 15 15 14 14 14 13 13 13 13 13 13 13 12 13 13 13 13 13
27 27 27 26 25 26 25 25 24 23 22 22 21 20 20 19 19 18 17 17 17 17 18 18 18 17 17 16 16 16 16 15 15 14 13 13 13 13 12 12 12 12 12 12 12 12 12 13 13
28 27 27 26 25 25 25 25 24 23 22 21 21 21 20 20 19 19 18 18 18 18 18 17 17 17 17 16 16 15 15 15 14 14 13 13 12 12 12 11 11 11 11 12 11 11 12 12 13
27 27 26 26 26 26 25 25 25 24 23 22 22 21 21 21 20 20 19 18 18 18 18 17 17 17 17 16 16 15 15 15 14 13 13 12 12 11 11 11 11 11 11 11 11 12 11 11 12
27 26 26 26 26 26 26 26 25 24 23 24 23 22 22 21 21 20 20 19 19 18 17 17 17 17 16 16 15 15 14 14 14 13 12 12 12 11 11 10 10 10 10 10 10 10 10 11 11
26 26 26 26 27 26 25 25 25 25 25 25 24 23 22 22 21 21 20 19 19 18 18 17 17 17 16 16 15 15 14 13 13 12 12 12 12 11 11 10 10 10 10 10 10 10 10 10 10
27 27 27 27 26 26 25 26 26 26 25 25 25 24 23 22 22 21 20 20 19 18 18 17 17 16 16 15 15 14 13 13 12 12 12 11 12 11 11 10 10 10 9 9 9 9 9 10 10
27 28 26 25 26 27 26 26 27 26 25 24 24 24 23 23 22 21 20 20 19 18 17 17 16 16 15 15 14 14 13 12 12 12 11 11 11 11 10 10 9 9 9 9 9 9 9 9 9
28 28 28 27 27 27 27 27 27 26 26 25 24 24 24 23 22 22 21 20 19 18 17 17 16 16 15 14 14 13 12 12 11 11 11 11 10 10 10 10 9 9 9 9 9 9 9 9 9
28 28 27 27 26 26 26 27 27 27 26 26 26 25 24 23 23 22 20 19 19 18 17 17 16 15 15 14 13 13 12 11 11 11 10 10 10 10 10 10 9 9 9 9 9 9 9 9 9
27 27 27 28 27 26 26 27 28 28 27 27 27 26 25 24 23 21 20 19 18 17 17 16 16 15 14 13 13 12 12 11 11 10 10 10 10 10 10 9 9 9 9 9 9 9 9 9 9
28 28 27 26 26 26 26 27 28 28 28 27 27 26 24 23 22 21 20 19 18 17 17 16 15 14 14 13 13 12 11 11 11 10 10 10 10 10 9 9 9 9 9 9 9 9 9 9 9
Wind_Speed
13 11 7 5 5 4 3 5 5 5 4 7 7 6 6 8 5 5 7 13 16 18 19 18 15 14 13 13 13 13 13 13 13 13 12 11 11 10 9 8 7 6 5 5 5 5 6 6 7
11 8 6 5 5 1 4 6 7 6 3 3 5 6 7 8 8 8 10 14 17 17 18 17 17 14 14 13 13 13 13 12 12 11 11 10 9 9 8 7 6 5 4 4 4 5 5 5 6
9 7 5 4 3 2 3 6 6 3 3 2 4 6 5 7 6 6 10 17 17 16 16 18 17 15 14 13 13 13 12 12 11 10 9 9 8 7 6 6 5 5 4 4 4 4 4 4 5
6 5 5 6 1 3 4 6 4 2 5 5 6 8 7 7 4 8 15 17 17 15 16 18 16 15 14 13 13 12 12 11 10 9 8 7 7 6 5 5 4 4 4 4 4 4 4 4 4
6 5 7 6 1 3 4 5 3 3 4 6 6 8 7 6 8 13 15 16 16 15 15 18 16 15 14 13 12 12 11 10 10 9 8 7 6 5 5 5 4 4 4 4 4 4 5 5 5
5 5 9 6 2 3 5 5 4 7 8 7 7 9 6 6 9 11 13 14 14 14 14 17 15 13 13 12 11 11 10 10 9 9 8 7 6 6 6 5 5 5 5 5 5 5 5 6 6
7 6 8 5 2 3 5 5 5 5 7 5 5 7 8 9 9 10 10 11 12 12 12 13 14 13 11 10 10 10 9 8 8 7 7 7 7 7 7 7 7 6 6 7 6 7 7 7 7
5 5 8 6 4 2 4 4 4 3 5 4 3 6 9 12 11 11 10 10 10 10 10 10 10 10 10 11 10 8 7 7 6 6 6 6 7 8 8 9 8 7 7 7 7 7 8 9 9
4 7 7 4 3 0 3 2 3 3 6 5 5 7 13 17 14 13 12 11 10 9 8 8 8 7 7 7 8 8 7 7 7 7 7 6 7 7 8 8 4 5 7 8 8 8 9 10 12
5 7 3 3 5 5 4 2 1 5 7 7 10 13 16 16 14 13 13 13 12 10 8 6 5 6 5 5 5 5 5 5 5 4 5 6 4 5 7 2 3 5 7 9 9 10 10 12 11
5 5 4 4 5 6 5 2 2 5 5 6 11 15 15 14 13 12 12 12 11 10 8 8 6 5 5 3 3 2 1 1 3 3 3 3 4 5 6 5 4 5 7 8 8 9 9 9 9
5 6 7 7 7 6 4 2 3 1 5 7 11 13 13 13 12 11 11 11 10 9 8 7 6 5 3 1 1 0 0 1 2 1 2 3 3 4 4 4 5 5 4 6 7 6 8 9 10
7 6 5 5 5 4 3 3 3 6 7 9 11 11 11 11 10 9 9 10 9 9 8 6 5 5 4 2 1 0 0 1 1 2 2 2 3 3 3 3 3 4 5 5 5 6 7 8 9
4 6 6 4 3 3 5 5 5 6 7 9 10 9 9 9 8 9 9 9 9 8 7 6 6 5 4 3 2 1 1 1 1 2 3 3 2 2 2 3 3 4 5 5 5 6 7 7 7
6 7 5 3 3 4 6 7 5 7 7 9 8 8 7 7 7 7 8 8 8 7 7 6 6 5 5 4 3 2 2 2 2 3 3 3 3 3 3 3 3 3 5 5 5 6 6 7 8
7 7 5 4 3 5 8 6 9 7 7 7 8 7 7 5 6 6 7 7 7 8 7 6 5 6 5 3 2 2 2 2 2 2 2 2 3 3 4 4 3 4 5 5 4 5 6 7 7
6 4 2 3 3 4 7 3 8 7 7 7 7 7 7 7 6 6 7 7 7 7 7 7 6 6 5 4 3 3 2 2 1 1 2 2 2 3 4 4 4 6 6 5 6 5 6 7 7
5 5 3 1 2 5 6 3 7 7 7 8 8 7 7 8 8 7 7 7 7 7 6 6 6 5 5 4 3 2 2 1 0 1 2 3 3 4 6 5 4 7 7 6 5 6 6 8 8
8 7 5 1 1 4 5 5 7 9 8 8 8 8 8 8 8 8 8 7 7 7 7 6 6 6 4 3 3 2 2 1 1 1 1 2 4 4 5 6 5 6 7 7 8 7 8 8 7
7 6 3 2 2 3 4 5 6 8 8 7 7 8 8 9 9 9 9 8 8 8 7 7 7 6 6 3 2 2 2 3 2 2 1 3 3 4 5 5 7 6 6 7 7 7 8 8 6
6 5 4 2 3 4 4 6 7 7 7 8 8 8 9 10 11 11 11 10 10 9 9 7 7 6 6 5 4 3 3 4 4 4 3 3 5 5 5 6 7 7 8 7 7 8 9 9 8
4 2 2 4 5 1 3 2 6 8 9 11 11 11 11 11 11 11 11 11 11 10 9 8 8 7 6 6 6 6 6 7 6 5 5 5 6 6 6 7 7 7 8 7 8 7 7 9 9
1 1 3 5 5 3 2 4 4 6 8 11 13 13 12 12 12 11 11 11 10 10 9 9 8 8 7 6 6 6 7 7 6 6 6 7 7 6 7 7 7 7 7 7 7 8 9 9 9
5 4 5 6 6 2 2 4 2 4 6 10 12 13 12 12 12 11 10 10 10 9 9 8 8 7 6 6 6 6 6 7 8 8 8 8 6 6 6 7 7 8 8 7 8 8 9 9 9
6 6 4 3 2 2 2 3 3 4 6 8 11 13 12 12 11 11 11 10 10 9 8 7 7 6 6 6 6 5 6 7 8 8 8 8 8 7 6 7 7 8 7 8 9 9 9 9 10
4 6 5 6 6 3 2 2 3 5 6 7 9 10 11 11 11 10 10 9 8 8 7 7 6 6 5 5 4 5 5 7 7 6 8 9 8 8 8 8 9 9 9 9 9 9 10 9 10
3 4 5 5 4 3 2 1 3 7 8 10 11 11 12 11 11 10 9 8 8 7 7 6 5 5 5 4 4 5 6 7 7 8 9 9 8 9 9 9 10 10 9 10 10 9 10 10 11
4 3 3 5 5 4 1 1 2 6 9 11 12 12 11 11 10 9 8 8 7 7 6 6 5 5 4 5 5 5 6 7 7 8 9 9 10 10 10 10 10 10 10 10 10 11 10 10 11
4 4 4 4 5 6 4 2 3 3 7 9 11 11 11 11 10 9 9 8 8 7 7 6 5 5 5 5 5 6 7 7 8 9 9 9 9 10 10 11 11 11 11 11 11 12 12 12 12
5 4 5 6 5 5 7 3 6 4 5 7 8 9 10 9 9 9 10 9 8 8 6 6 5 5 5 5 6 7 7 8 9 10 10 10 10 10 11 11 11 12 12 12 12 13 13 13 13
Wind_Direction
173 184 210 234 242 220 68 47 15 9 38 49 46 46 52 38 19 76 119 142 140 143 141 147 145 143 140 135 130 128 129 133 137 139 140 143 144 145 146 146 145 143 136 123 112 107 106 107 108
173 186 217 241 263 190 87 37 20 23 63 86 72 67 71 66 57 98 133 140 146 143 145 149 143 144 141 138 134 131 129 129 132 134 136 139 142 146 150 152 154 154 147 135 125 117 114 114 116
174 212 249 252 267 345 33 25 14 37 85 101 86 63 60 64 83 109 133 146 146 142 143 141 147 147 145 142 139 135 133 132 133 135 138 141 145 152 159 164 167 169 166 157 145 132 128 127 128
191 219 238 249 249 38 7 357 350 143 106 89 110 93 86 46 41 113 138 148 145 146 149 143 152 150 149 147 145 141 139 138 138 140 144 149 155 163 172 178 180 185 184 178 169 155 152 153 152
231 252 244 233 209 50 19 6 355 134 105 99 106 104 90 51 79 120 140 149 151 151 148 145 154 153 153 152 151 148 148 148 149 152 157 163 171 183 193 199 200 208 209 202 197 187 178 180 182
231 249 252 239 152 75 48 41 73 100 108 106 105 107 90 89 105 125 140 153 153 151 150 143 153 155 157 158 157 156 157 159 162 167 172 178 186 198 211 219 222 228 230 226 223 213 202 200 202
264 261 263 261 221 113 51 46 69 104 110 95 110 117 120 119 115 125 135 149 151 152 149 152 158 160 161 161 162 163 166 169 173 179 185 195 205 213 221 229 231 238 240 238 236 231 224 216 215
274 264 249 239 227 125 56 54 66 82 100 91 107 126 139 135 131 128 132 143 151 154 154 156 160 161 170 171 169 172 176 180 184 192 201 213 223 227 228 234 228 240 248 249 245 241 235 229 225
254 252 246 240 241 81 36 37 76 94 104 89 72 82 117 131 136 136 139 146 153 155 156 165 158 163 174 176 162 180 185 193 203 205 204 222 241 242 227 233 220 244 255 258 256 254 246 240 232
240 255 268 322 306 314 332 330 119 154 128 111 102 103 121 136 145 148 152 157 160 163 166 164 167 160 181 181 167 195 200 189 222 234 230 234 245 267 271 188 215 251 262 264 258 257 253 245 242
244 273 314 305 305 306 290 253 194 187 142 136 138 137 140 144 152 156 157 160 163 168 172 166 168 168 184 179 192 196 219 199 229 240 259 263 268 261 270 273 244 247 252 263 257 250 251 249 248
257 275 288 296 309 293 273 213 166 119 93 114 134 143 147 153 156 158 158 162 165 171 170 166 165 168 174 185 202 207 269 266 274 265 286 286 279 277 277 277 280 276 273 269 274 270 264 260 256
251 280 291 294 290 287 235 188 143 110 108 117 127 141 148 149 150 151 155 160 164 168 168 163 165 165 168 171 231 116 276 285 294 338 8 323 290 286 285 284 281 274 269 266 272 276 274 268 258
294 287 284 278 265 214 182 158 154 120 129 131 137 142 145 146 149 152 156 160 164 166 162 160 164 160 160 156 152 146 124 94 25 31 37 9 333 326 300 279 295 294 287 293 287 283 280 276 271
272 267 241 199 198 179 186 176 149 131 141 140 138 138 139 141 151 159 158 159 160 160 160 160 161 157 155 153 151 133 105 76 54 52 47 26 6 359 322 308 287 300 294 284 278 282 277 271 270
246 246 230 145 185 182 228 186 135 147 156 151 145 145 144 145 157 160 159 157 156 159 158 160 155 144 145 141 138 115 88 85 62 33 30 24 3 325 304 302 306 315 294 290 287 279 287 285 281
223 266 304 143 174 199 236 179 138 164 169 160 158 154 152 156 161 159 158 157 157 157 156 155 146 146 146 145 148 130 114 96 75 36 18 13 331 315 300 304 316 294 287 288 291 296 295 292 288
331 314 299 261 147 220 233 184 152 176 183 173 170 166 164 166 165 160 159 155 155 158 161 158 157 152 158 162 161 159 157 159 113 27 33 344 323 320 309 292 304 298 289 287 291 296 285 287 287
301 298 303 16 129 235 230 208 177 184 195 190 183 174 174 171 166 165 167 168 168 169 173 176 175 168 182 189 206 210 223 240 264 298 15 330 328 327 309 307 308 294 291 294 290 287 281 275 288
273 279 278 146 175 243 219 211 188 195 201 198 191 184 183 178 175 179 183 184 186 184 186 189 192 192 204 202 226 254 284 272 282 296 295 305 315 309 301 314 301 301 297 278 280 276 286 288 282
275 293 300 260 177 203 233 202 188 192 198 198 200 195 191 190 187 189 192 194 195 196 198 200 202 205 214 215 227 230 236 254 261 276 277 301 303 301 308 304 304 306 292 289 290 280 271 282 284
296 351 254 211 228 203 263 277 167 186 195 199 200 199 199 197 197 196 196 201 204 205 205 208 211 214 215 221 241 256 273 288 302 300 302 301 289 295 297 297 296 295 294 294 281 281 282 272 276
2 144 217 225 251 259 254 295 123 172 200 201 199 198 200 199 201 202 205 209 212 212 212 211 213 216 218 228 238 252 270 286 292 295 290 290 291 286 290 294 295 291 287 293 296 294 280 274 272
152 181 200 222 241 269 20 303 106 157 191 188 191 195 199 200 204 208 212 213 216 216 216 216 214 219 219 225 237 253 275 286 294 294 296 292 292 289 288 289 288 283 287 288 282 282 273 272 277
220 262 265 248 252 47 85 288 59 128 169 181 184 189 196 201 204 207 211 213 214 215 215 215 212 216 217 225 239 253 270 279 278 286 293 295 297 295 297 297 289 285 282 280 279 274 277 273 269
244 286 320 330 344 12 155 336 93 145 165 183 189 189 192 198 202 206 210 211 210 206 201 203 207 214 217 226 241 258 267 276 286 291 297 296 296 299 305 292 284 280 278 276 273 274 269 266 266
242 265 324 296 295 302 45 40 152 165 183 188 191 192 194 196 196 199 195 194 190 188 188 192 195 204 216 233 246 258 267 279 289 289 279 285 291 292 291 288 284 280 275 273 272 270 272 270 266
295 275 260 294 322 319 354 3 68 177 189 188 192 195 193 189 191 186 179 178 176 175 174 179 191 208 227 242 257 268 271 273 278 284 292 293 292 290 289 286 283 279 275 269 266 269 264 264 264
192 217 259 284 309 309 325 20 83 172 192 196 197 198 195 193 188 178 173 169 170 174 178 187 199 218 240 258 263 273 276 281 283 283 284 286 287 289 285 285 284 281 277 272 267 267 271 266 266
252 257 244 274 282 280 298 328 125 174 197 201 202 194 193 192 183 175 172 172 177 185 193 203 218 237 255 264 266 271 277 280 283 286 288 287 285 285 285 284 282 280 277 274 269 267 268 267 266
Height
1528 1530 1531 1533 1527 1515 1511 1508 1506 1505 1504 1508 1508 1507 1507 1511 1513 1524 1528 1529 1531 1534 1535 1538 1541 1543 1546 1548 1550 1552 1554 1555 1556 1558 1559 1560 1561 1562 1562 1563 1564 1564 1565 1565 1566 1566 1566 1566 1567
1530 1531 1533 1530 1516 1513 1512 1508 1507 1507 1508 1510 1510 1511 1512 1518 1523 1526 1528 1530 1533 1536 1538 1540 1542 1545 1547 1550 1551 1553 1555 1556 1558 1559 1560 1561 1562 1563 1563 1564 1565 1565 1566 1566 1567 1567 1567 1568 1568
1531 1532 1532 1520 1512 1512 1512 1508 1508 1508 1509 1510 1512 1515 1517 1523 1527 1528 1529 1531 1535 1538 1540 1541 1544 1546 1549 1551 1553 1554 1556 1557 1559 1560 1561 1562 1563 1563 1564 1565 1566 1566 1567 1567 1568 1568 1568 1569 1569
1533 1533 1529 1517 1512 1510 1510 1509 1508 1507 1509 1511 1512 1516 1522 1527 1529 1530 1530 1534 1537 1539 1542 1543 1545 1548 1550 1552 1554 1556 1557 1558 1560 1561 1562 1562 1563 1564 1565 1566 1566 1567 1568 1568 1569 1569 1569 1570 1570
1532 1528 1518 1512 1510 1509 1509 1509 1508 1506 1509 1512 1513 1518 1525 1528 1529 1531 1533 1536 1539 1542 1544 1545 1547 1549 1551 1553 1555 1556 1558 1559 1560 1561 1562 1563 1564 1565 1565 1566 1567 1567 1568 1569 1569 1569 1570 1570 1571
1530 1523 1516 1511 1510 1510 1509 1510 1509 1509 1512 1515 1515 1519 1528 1529 1531 1533 1535 1539 1542 1544 1546 1546 1548 1550 1552 1554 1556 1557 1559 1560 1561 1562 1562 1563 1564 1565 1566 1566 1567 1567 1568 1568 1569 1569 1570 1570 1571
1528 1519 1513 1511 1511 1510 1512 1512 1512 1512 1514 1516 1517 1520 1528 1530 1531 1533 1536 1540 1543 1546 1548 1548 1550 1551 1553 1555 1556 1558 1559 1560 1561 1562 1562 1563 1564 1565 1565 1566 1566 1567 1567 1568 1568 1569 1569 1570 1570
1528 1520 1513 1511 1512 1511 1513 1513 1514 1514 1516 1519 1519 1520 1526 1530 1531 1533 1536 1540 1543 1546 1549 1550 1552 1553 1554 1555 1556 1557 1559 1560 1560 1561 1562 1562 1563 1564 1564 1565 1565 1566 1566 1567 1567 1567 1568 1569 1569
1529 1521 1514 1510 1511 1510 1513 1514 1516 1517 1518 1520 1521 1522 1525 1529 1531 1534 1537 1540 1543 1546 1548 1551 1553 1553 1555 1557 1557 1558 1558 1559 1560 1561 1561 1562 1563 1564 1564 1564 1564 1564 1564 1565 1565 1566 1566 1567 1567
1526 1518 1513 1513 1513 1512 1514 1515 1515 1515 1517 1521 1523 1525 1527 1530 1533 1536 1538 1541 1543 1546 1548 1551 1552 1553 1555 1557 1557 1558 1559 1559 1559 1560 1561 1561 1562 1562 1563 1562 1562 1562 1562 1563 1563 1563 1564 1564 1565
1522 1518 1515 1515 1515 1515 1514 1514 1515 1514 1515 1520 1524 1527 1529 1532 1535 1538 1540 1542 1544 1546 1549 1550 1551 1552 1554 1556 1557 1558 1558 1558 1558 1558 1558 1559 1559 1560 1561 1561 1560 1560 1560 1561 1560 1561 1561 1562 1562
1522 1519 1519 1517 1516 1515 1514 1514 1515 1516 1519 1523 1525 1528 1531 1534 1536 1539 1541 1543 1544 1546 1548 1550 1551 1552 1553 1555 1555 1556 1556 1556 1557 1557 1557 1557 1557 1558 1558 1557 1558 1557 1557 1557 1557 1557 1558 1558 1558
1520 1518 1518 1517 1516 1515 1515 1515 1517 1521 1524 1525 1527 1530 1533 1535 1537 1539 1541 1542 1544 1546 1548 1549 1550 1551 1552 1553 1554 1554 1555 1555 1556 1555 1555 1555 1555 1556 1555 1554 1554 1554 1554 1554 1554 1554 1554 1553 1554
1517 1517 1516 1516 1515 1516 1515 1517 1519 1524 1526 1528 1530 1532 1534 1536 1538 1539 1541 1542 1544 1545 1547 1549 1550 1551 1551 1552 1553 1553 1554 1554 1554 1554 1553 1553 1554 1553 1553 1552 1551 1551 1551 1550 1550 1550 1550 1550 1549
1518 1515 1512 1513 1514 1515 1515 1516 1519 1525 1527 1529 1531 1533 1535 1537 1538 1540 1541 1542 1544 1545 1547 1548 1549 1550 1551 1552 1553 1553 1553 1553 1553 1553 1552 1552 1552 1551 1550 1550 1549 1549 1548 1547 1547 1547 1546 1546 1545
1513 1510 1508 1509 1512 1514 1515 1512 1520 1526 1528 1530 1532 1534 1536 1537 1538 1540 1541 1542 1544 1545 1547 1548 1549 1550 1551 1552 1552 1553 1553 1553 1552 1552 1551 1550 1549 1548 1548 1548 1548 1546 1546 1545 1544 1543 1543 1542 1541
1506 1507 1507 1509 1511 1512 1512 1510 1520 1526 1527 1530 1532 1534 1536 1537 1539 1540 1541 1542 1543 1545 1546 1548 1549 1550 1551 1551 1552 1552 1551 1551 1551 1551 1550 1548 1547 1547 1546 1546 1545 1543 1543 1543 1542 1541 1540 1539 1538
1508 1506 1506 1508 1510 1512 1511 1512 1520 1525 1526 1528 1531 1533 1535 1537 1539 1540 1541 1542 1543 1545 1546 1547 1548 1549 1550 1551 1551 1551 1550 1550 1550 1549 1547 1546 1545 1544 1543 1543 1541 1541 1540 1539 1538 1537 1536 1535 1534
1507 1508 1508 1509 1512 1512 1512 1514 1518 1523 1525 1527 1529 1532 1535 1537 1538 1540 1541 1542 1543 1544 1545 1547 1548 1548 1549 1550 1551 1551 1550 1550 1549 1548 1545 1544 1543 1541 1540 1540 1538 1537 1537 1535 1535 1534 1533 1532 1531
1507 1509 1508 1511 1513 1512 1513 1514 1517 1521 1524 1526 1528 1530 1533 1536 1538 1539 1541 1542 1543 1544 1545 1546 1547 1548 1548 1549 1549 1548 1548 1548 1547 1546 1543 1541 1540 1538 1538 1536 1535 1534 1532 1531 1531 1530 1530 1529 1529
1505 1506 1507 1509 1512 1511 1512 1514 1516 1519 1523 1526 1527 1529 1531 1534 1536 1538 1540 1541 1542 1543 1544 1545 1546 1546 1547 1547 1547 1546 1546 1545 1545 1543 1541 1539 1537 1535 1533 1532 1531 1530 1529 1529 1527 1526 1526 1526 1526
1505 1505 1506 1509 1510 1508 1511 1515 1512 1514 1519 1522 1525 1527 1529 1532 1534 1537 1538 1540 1541 1542 1543 1543 1544 1544 1544 1544 1545 1545 1544 1544 1542 1540 1539 1536 1534 1532 1530 1529 1527 1526 1526 1525 1524 1524 1523 1522 1522
1505 1506 1505 1506 1506 1507 1508 1510 1509 1511 1515 1516 1520 1523 1526 1529 1532 1534 1536 1538 1539 1540 1541 1541 1541 1542 1542 1541 1541 1541 1541 1540 1539 1537 1535 1532 1531 1529 1527 1525 1524 1523 1522 1521 1519 1519 1518 1519 1518
1505 1506 1506 1503 1500 1512 1511 1511 1511 1506 1509 1510 1515 1519 1523 1526 1529 1532 1534 1535 1536 1537 1538 1539 1539 1539 1539 1538 1538 1537 1537 1535 1534 1533 1531 1530 1529 1527 1525 1523 1521 1519 1519 1517 1516 1515 1514 1514 1513
1504 1505 1509 1510 1510 1512 1508 1509 1507 1503 1505 1508 1512 1516 1520 1523 1526 1528 1530 1532 1533 1534 1535 1536 1536 1536 1535 1535 1535 1534 1533 1531 1530 1529 1528 1526 1525 1524 1522 1520 1517 1516 1514 1513 1512 1511 1510 1510 1509
1500 1501 1513 1522 1516 1506 1505 1507 1500 1501 1505 1509 1511 1514 1517 1520 1523 1525 1527 1529 1530 1531 1532 1533 1533 1533 1533 1532 1531 1530 1529 1528 1528 1526 1524 1523 1521 1520 1517 1515 1513 1512 1510 1509 1508 1507 1506 1505 1504
1498 1497 1494 1502 1504 1508 1503 1500 1496 1500 1503 1506 1509 1512 1514 1517 1520 1522 1524 1526 1527 1528 1529 1530 1530 1530 1529 1529 1528 1526 1525 1524 1523 1521 1519 1519 1517 1515 1513 1511 1509 1507 1506 1505 1503 1503 1501 1501 1500
1496 1494 1500 1502 1516 1515 1507 1503 1499 1497 1498 1500 1504 1507 1510 1514 1517 1519 1521 1523 1525 1526 1526 1527 1527 1526 1526 1525 1524 1524 1522 1520 1519 1517 1516 1514 1512 1510 1508 1507 1505 1503 1502 1500 1499 1498 1497 1496 1495
1500 1499 1499 1497 1502 1512 1513 1503 1488 1491 1493 1495 1499 1503 1507 1510 1513 1516 1519 1520 1522 1523 1523 1523 1523 1523 1522 1522 1520 1519 1518 1517 1515 1514 1512 1510 1508 1506 1504 1502 1500 1499 1497 1496 1494 1493 1492 1491 1490
1492 1493 1497 1506 1506 1504 1505 1499 1485 1488 1490 1493 1496 1500 1504 1508 1511 1514 1516 1517 1518 1520 1521 1521 1521 1520 1519 1518 1517 1516 1514 1513 1511 1510 1508 1506 1504 1502 1500 1498 1496 1494 1493 1491 1490 1488 1487 1486 1485